Time,TemperatureF,DewpointF,PressureIn,WindDirection,WindDirectionDegrees,WindSpeedMPH,WindSpeedGustMPH,Humidity,HourlyPrecipIn,Conditions,Clouds,dailyrainin,SoftwareType,DateUTC
2013-08-19 00:01:00,61.0,58.0,30.20,South,180,1.0,1.0,90,0.00,,---,0.00,VWS V14.01,2013-08-19 04:01:00,
2013-08-19 00:03:00,61.0,58.0,30.20,South,180,0.0,1.0,90,0.00,,---,0.00,VWS V14.01,2013-08-19 04:03:00,
2013-08-19 00:08:00,61.0,58.0,30.20,South,180,0.0,1.0,90,0.00,,---,0.00,VWS V14.01,2013-08-19 04:08:00,
2013-08-19 00:13:00,61.0,58.0,30.20,South,180,0.0,1.0,90,0.00,,---,0.00,VWS V14.01,2013-08-19 04:13:00,
2013-08-19 00:18:00,60.0,57.1,30.21,SSE,158,0.0,1.0,90,0.00,,---,0.00,VWS V14.01,2013-08-19 04:18:00,
2013-08-19 00:23:00,60.0,57.1,30.21,SSE,158,0.0,1.0,90,0.00,,---,0.00,VWS V14.01,2013-08-19 04:23:00,
2013-08-19 00:28:00,60.0,57.4,30.21,SW,225,1.0,2.0,91,0.00,,---,0.00,VWS V14.01,2013-08-19 04:28:00,
2013-08-19 00:33:00,60.0,57.4,30.21,SW,225,0.0,2.0,91,0.00,,---,0.00,VWS V14.01,2013-08-19 04:33:00,
2013-08-19 00:38:00,60.0,57.4,30.21,SSE,158,1.0,2.0,91,0.00,,---,0.00,VWS V14.01,2013-08-19 04:38:00,
2013-08-19 00:43:00,61.0,58.7,30.21,SSE,158,0.0,1.0,92,0.00,,---,0.00,VWS V14.01,2013-08-19 04:43:00,
2013-08-19 00:48:00,61.0,58.7,30.20,SSE,158,0.0,1.0,92,0.00,,---,0.00,VWS V14.01,2013-08-19 04:48:00,
2013-08-19 00:53:00,61.0,58.7,30.20,NNE,22,1.0,1.0,92,0.00,,---,0.00,VWS V14.01,2013-08-19 04:53:00,
2013-08-19 00:59:00,61.0,58.7,30.20,NNE,22,1.0,1.0,92,0.00,,---,0.00,VWS V14.01,2013-08-19 04:59:00,
2013-08-19 01:04:00,61.0,58.7,30.20,NNE,22,0.0,1.0,92,0.00,,---,0.00,VWS V14.01,2013-08-19 05:04:00,
2013-08-19 01:09:00,61.0,58.7,30.20,NNE,22,0.0,1.0,92,0.00,,---,0.00,VWS V14.01,2013-08-19 05:09:00,
2013-08-19 01:14:00,61.0,58.7,30.20,SSE,158,0.0,2.0,92,0.00,,---,0.00,VWS V14.01,2013-08-19 05:14:00,
2013-08-19 01:19:00,61.0,58.7,30.20,SSE,158,1.0,2.0,92,0.00,,---,0.00,VWS V14.01,2013-08-19 05:19:00,
2013-08-19 01:24:00,61.0,58.7,30.20,SE,135,2.0,3.0,92,0.00,,---,0.00,VWS V14.01,2013-08-19 05:24:00,
2013-08-19 01:29:00,61.0,58.7,30.20,SSE,158,1.0,3.0,92,0.00,,---,0.00,VWS V14.01,2013-08-19 05:29:00,
2013-08-19 01:34:00,61.0,58.7,30.20,SSE,158,0.0,3.0,92,0.00,,---,0.00,VWS V14.01,2013-08-19 05:34:00,
2013-08-19 01:39:00,61.0,58.7,30.19,North,0,1.0,3.0,92,0.00,,---,0.00,VWS V14.01,2013-08-19 05:39:00,
2013-08-19 01:44:00,61.0,58.7,30.19,North,0,1.0,3.0,92,0.00,,---,0.00,VWS V14.01,2013-08-19 05:44:00,
2013-08-19 01:49:00,61.0,58.7,30.19,NNE,22,2.0,4.0,92,0.00,,---,0.00,VWS V14.01,2013-08-19 05:49:00,
2013-08-19 01:54:00,61.0,58.7,30.19,North,0,1.0,4.0,92,0.00,,---,0.00,VWS V14.01,2013-08-19 05:54:00,
2013-08-19 01:59:00,61.0,58.7,30.19,West,270,1.0,4.0,92,0.00,,---,0.00,VWS V14.01,2013-08-19 05:59:00,
2013-08-19 02:04:00,61.0,58.7,30.19,West,270,1.0,1.0,92,0.00,,---,0.00,VWS V14.01,2013-08-19 06:04:00,
2013-08-19 02:10:00,61.0,58.7,30.19,West,270,1.0,1.0,92,0.00,,---,0.00,VWS V14.01,2013-08-19 06:10:00,
2013-08-19 02:15:00,61.0,58.7,30.19,WSW,248,0.0,1.0,92,0.00,,---,0.00,VWS V14.01,2013-08-19 06:15:00,
2013-08-19 02:20:00,61.0,58.7,30.19,WSW,248,1.0,1.0,92,0.00,,---,0.00,VWS V14.01,2013-08-19 06:20:00,
2013-08-19 02:25:00,61.0,58.7,30.19,WSW,248,1.0,2.0,92,0.00,,---,0.00,VWS V14.01,2013-08-19 06:25:00,
2013-08-19 02:30:00,60.0,57.7,30.18,WSW,248,1.0,2.0,92,0.00,,---,0.00,VWS V14.01,2013-08-19 06:30:00,
2013-08-19 02:35:00,60.0,58.0,30.18,WSW,248,0.0,2.0,93,0.00,,---,0.00,VWS V14.01,2013-08-19 06:35:00,
2013-08-19 02:40:00,60.0,58.0,30.19,WSW,248,0.0,2.0,93,0.00,,---,0.00,VWS V14.01,2013-08-19 06:40:00,
2013-08-19 02:45:00,60.0,58.0,30.19,NW,315,0.0,1.0,93,0.00,,---,0.00,VWS V14.01,2013-08-19 06:45:00,
2013-08-19 02:50:00,60.0,58.0,30.18,NW,315,0.0,1.0,93,0.00,,---,0.00,VWS V14.01,2013-08-19 06:50:00,
2013-08-19 02:55:00,60.0,58.0,30.19,NW,315,0.0,1.0,93,0.00,,---,0.00,VWS V14.01,2013-08-19 06:55:00,
2013-08-19 03:00:00,60.0,58.0,30.18,NW,315,1.0,1.0,93,0.00,,---,0.00,VWS V14.01,2013-08-19 07:00:00,
2013-08-19 03:05:00,60.0,58.3,30.18,NNW,338,0.0,1.0,94,0.00,,---,0.00,VWS V14.01,2013-08-19 07:05:00,
2013-08-19 03:10:00,60.0,58.3,30.18,NE,45,1.0,2.0,94,0.00,,---,0.00,VWS V14.01,2013-08-19 07:10:00,
2013-08-19 03:15:00,60.0,58.3,30.18,SE,135,1.0,3.0,94,0.00,,---,0.00,VWS V14.01,2013-08-19 07:15:00,
2013-08-19 03:20:00,60.0,58.3,30.17,SE,135,0.0,3.0,94,0.00,,---,0.00,VWS V14.01,2013-08-19 07:20:00,
2013-08-19 03:26:00,60.0,58.3,30.17,East,90,1.0,3.0,94,0.00,,---,0.00,VWS V14.01,2013-08-19 07:26:00,
2013-08-19 03:31:00,60.0,58.3,30.17,ENE,68,1.0,3.0,94,0.00,,---,0.00,VWS V14.01,2013-08-19 07:31:00,
2013-08-19 03:36:00,60.0,58.3,30.17,East,90,1.0,3.0,94,0.00,,---,0.00,VWS V14.01,2013-08-19 07:36:00,
2013-08-19 03:41:00,60.0,58.3,30.17,SSE,158,0.0,3.0,94,0.00,,---,0.00,VWS V14.01,2013-08-19 07:41:00,
2013-08-19 03:46:00,60.0,58.3,30.17,SSE,158,0.0,1.0,94,0.00,,---,0.00,VWS V14.01,2013-08-19 07:46:00,
2013-08-19 03:51:00,60.0,58.3,30.18,South,180,1.0,3.0,94,0.00,,---,0.00,VWS V14.01,2013-08-19 07:51:00,
2013-08-19 03:56:00,60.0,58.3,30.17,SSE,158,1.0,3.0,94,0.00,,---,0.00,VWS V14.01,2013-08-19 07:56:00,
2013-08-19 04:01:00,60.0,58.3,30.17,SE,135,2.0,3.0,94,0.00,,---,0.00,VWS V14.01,2013-08-19 08:01:00,
2013-08-19 04:06:00,60.0,58.3,30.17,SE,135,1.0,3.0,94,0.00,,---,0.00,VWS V14.01,2013-08-19 08:06:00,
2013-08-19 04:11:00,60.0,58.3,30.17,SW,225,1.0,3.0,94,0.00,,---,0.00,VWS V14.01,2013-08-19 08:11:00,
2013-08-19 04:16:00,60.0,58.3,30.17,NNW,338,2.0,3.0,94,0.00,,---,0.00,VWS V14.01,2013-08-19 08:16:00,
2013-08-19 04:21:00,60.0,58.3,30.17,North,0,1.0,1.0,94,0.00,,---,0.00,VWS V14.01,2013-08-19 08:21:00,
2013-08-19 04:26:00,60.0,58.3,30.17,North,0,0.0,1.0,94,0.00,,---,0.00,VWS V14.01,2013-08-19 08:26:00,
2013-08-19 04:31:00,60.0,58.3,30.17,NE,45,1.0,2.0,94,0.00,,---,0.00,VWS V14.01,2013-08-19 08:31:00,
2013-08-19 04:36:00,60.0,58.3,30.17,NE,45,1.0,2.0,94,0.00,,---,0.00,VWS V14.01,2013-08-19 08:36:00,
2013-08-19 04:41:00,60.0,58.6,30.17,ENE,68,2.0,3.0,95,0.00,,---,0.00,VWS V14.01,2013-08-19 08:41:00,
2013-08-19 04:47:00,60.0,58.6,30.17,East,90,2.0,3.0,95,0.00,,---,0.00,VWS V14.01,2013-08-19 08:47:00,
2013-08-19 04:52:00,60.0,58.6,30.17,East,90,1.0,3.0,95,0.00,,---,0.00,VWS V14.01,2013-08-19 08:52:00,
2013-08-19 04:57:00,60.0,58.6,30.17,East,90,0.0,3.0,95,0.00,,---,0.00,VWS V14.01,2013-08-19 08:57:00,
2013-08-19 05:02:00,60.0,58.6,30.18,East,90,0.0,0.0,95,0.00,,---,0.00,VWS V14.01,2013-08-19 09:02:00,
2013-08-19 05:07:00,60.0,58.6,30.18,SE,135,1.0,2.0,95,0.00,,---,0.00,VWS V14.01,2013-08-19 09:07:00,
2013-08-19 05:12:00,60.0,58.6,30.18,SSE,158,1.0,3.0,95,0.00,,---,0.00,VWS V14.01,2013-08-19 09:12:00,
2013-08-19 05:17:00,60.0,58.6,30.18,SSE,158,1.0,3.0,95,0.00,,---,0.00,VWS V14.01,2013-08-19 09:17:00,
2013-08-19 05:22:00,60.0,58.6,30.17,SW,225,1.0,1.0,95,0.00,,---,0.00,VWS V14.01,2013-08-19 09:22:00,
2013-08-19 05:27:00,60.0,58.6,30.18,WSW,248,1.0,2.0,95,0.00,,---,0.00,VWS V14.01,2013-08-19 09:27:00,
2013-08-19 05:32:00,60.0,58.6,30.17,WSW,248,0.0,2.0,95,0.00,,---,0.00,VWS V14.01,2013-08-19 09:32:00,
2013-08-19 05:37:00,60.0,58.6,30.18,NNW,338,1.0,2.0,95,0.00,,---,0.00,VWS V14.01,2013-08-19 09:37:00,
2013-08-19 05:42:00,60.0,58.6,30.18,NNW,338,0.0,1.0,95,0.00,,---,0.00,VWS V14.01,2013-08-19 09:42:00,
2013-08-19 05:47:00,60.0,58.6,30.18,NNW,338,0.0,1.0,95,0.00,,---,0.00,VWS V14.01,2013-08-19 09:47:00,
2013-08-19 05:52:00,60.0,58.6,30.18,NNW,338,0.0,1.0,95,0.00,,---,0.00,VWS V14.01,2013-08-19 09:52:00,
2013-08-19 05:57:00,60.0,58.6,30.18,NNW,338,0.0,1.0,95,0.00,,---,0.00,VWS V14.01,2013-08-19 09:57:00,
2013-08-19 06:03:00,60.0,58.6,30.18,NNE,22,1.0,1.0,95,0.00,,---,0.00,VWS V14.01,2013-08-19 10:03:00,
2013-08-19 06:08:00,60.0,58.6,30.18,East,90,1.0,2.0,95,0.00,,---,0.00,VWS V14.01,2013-08-19 10:08:00,
2013-08-19 06:13:00,60.0,58.6,30.18,East,90,1.0,2.0,95,0.00,,---,0.00,VWS V14.01,2013-08-19 10:13:00,
2013-08-19 06:18:00,60.0,58.6,30.18,SE,135,1.0,3.0,95,0.00,,---,0.00,VWS V14.01,2013-08-19 10:18:00,
2013-08-19 06:23:00,60.0,58.6,30.18,SE,135,1.0,1.0,95,0.00,,---,0.00,VWS V14.01,2013-08-19 10:23:00,
2013-08-19 06:28:00,60.0,58.6,30.19,SE,135,0.0,1.0,95,0.00,,---,0.00,VWS V14.01,2013-08-19 10:28:00,
2013-08-19 06:33:00,60.0,58.6,30.19,SW,225,1.0,2.0,95,0.00,,---,0.00,VWS V14.01,2013-08-19 10:33:00,
2013-08-19 06:38:00,61.0,59.6,30.19,SW,225,0.0,2.0,95,0.00,,---,0.00,VWS V14.01,2013-08-19 10:38:00,
2013-08-19 06:43:00,61.0,59.6,30.19,SW,225,0.0,1.0,95,0.00,,---,0.00,VWS V14.01,2013-08-19 10:43:00,
2013-08-19 06:48:00,61.0,59.6,30.19,SW,225,0.0,1.0,95,0.00,,---,0.00,VWS V14.01,2013-08-19 10:48:00,
2013-08-19 06:53:00,61.0,59.6,30.19,NW,315,1.0,1.0,95,0.00,,---,0.00,VWS V14.01,2013-08-19 10:53:00,
2013-08-19 06:58:00,61.0,59.6,30.19,NW,315,0.0,1.0,95,0.00,,---,0.00,VWS V14.01,2013-08-19 10:58:00,
2013-08-19 07:03:00,61.0,59.6,30.19,NW,315,1.0,1.0,95,0.00,,---,0.00,VWS V14.01,2013-08-19 11:03:00,
2013-08-19 07:09:00,61.0,59.6,30.19,ENE,68,0.0,3.0,95,0.00,,---,0.00,VWS V14.01,2013-08-19 11:09:00,
2013-08-19 07:14:00,61.0,59.6,30.19,ENE,68,1.0,3.0,95,0.00,,---,0.00,VWS V14.01,2013-08-19 11:14:00,
2013-08-19 07:19:00,61.0,59.6,30.19,ENE,68,1.0,3.0,95,0.00,,---,0.00,VWS V14.01,2013-08-19 11:19:00,
2013-08-19 07:24:00,61.0,59.6,30.19,ENE,68,0.0,2.0,95,0.00,,---,0.00,VWS V14.01,2013-08-19 11:24:00,
2013-08-19 07:29:00,61.0,59.3,30.19,ENE,68,1.0,2.0,94,0.00,,---,0.00,VWS V14.01,2013-08-19 11:29:00,
2013-08-19 07:34:00,61.0,59.3,30.19,ENE,68,1.0,2.0,94,0.00,,---,0.00,VWS V14.01,2013-08-19 11:34:00,
2013-08-19 07:39:00,61.0,59.3,30.19,North,0,0.0,2.0,94,0.00,,---,0.00,VWS V14.01,2013-08-19 11:39:00,
2013-08-19 07:44:00,61.0,59.3,30.19,North,0,1.0,2.0,94,0.00,,---,0.00,VWS V14.01,2013-08-19 11:44:00,
2013-08-19 07:49:00,61.0,59.3,30.19,NW,315,0.0,2.0,94,0.00,,---,0.00,VWS V14.01,2013-08-19 11:49:00,
2013-08-19 07:54:00,61.0,59.3,30.19,SW,225,1.0,5.0,94,0.00,,---,0.00,VWS V14.01,2013-08-19 11:54:00,
2013-08-19 07:59:00,61.0,59.3,30.19,West,270,0.0,5.0,94,0.00,,---,0.00,VWS V14.01,2013-08-19 11:59:00,
2013-08-19 08:04:00,61.0,59.0,30.19,NNE,22,1.0,1.0,93,0.00,,---,0.00,VWS V14.01,2013-08-19 12:04:00,
2013-08-19 08:10:00,62.0,60.0,30.19,NNE,22,1.0,1.0,93,0.00,,---,0.00,VWS V14.01,2013-08-19 12:10:00,
2013-08-19 08:15:00,62.0,60.0,30.19,NE,45,0.0,1.0,93,0.00,,---,0.00,VWS V14.01,2013-08-19 12:15:00,
2013-08-19 08:20:00,62.0,60.0,30.19,NE,45,1.0,1.0,93,0.00,,---,0.00,VWS V14.01,2013-08-19 12:20:00,
2013-08-19 08:25:00,62.0,60.0,30.19,NE,45,1.0,1.0,93,0.00,,---,0.00,VWS V14.01,2013-08-19 12:25:00,
2013-08-19 08:30:00,62.0,60.0,30.19,NE,45,1.0,1.0,93,0.00,,---,0.00,VWS V14.01,2013-08-19 12:30:00,
2013-08-19 08:35:00,62.0,60.0,30.19,ESE,112,1.0,2.0,93,0.00,,---,0.00,VWS V14.01,2013-08-19 12:35:00,
2013-08-19 08:40:00,62.0,60.0,30.19,ESE,112,0.0,2.0,93,0.00,,---,0.00,VWS V14.01,2013-08-19 12:40:00,
2013-08-19 08:45:00,62.0,60.0,30.19,ESE,112,1.0,1.0,93,0.00,,---,0.00,VWS V14.01,2013-08-19 12:45:00,
2013-08-19 08:50:00,62.0,60.0,30.19,SE,135,1.0,2.0,93,0.00,,---,0.00,VWS V14.01,2013-08-19 12:50:00,
2013-08-19 08:55:00,63.0,60.6,30.19,ESE,112,1.0,2.0,92,0.00,,---,0.00,VWS V14.01,2013-08-19 12:55:00,
2013-08-19 09:01:00,63.0,60.6,30.19,East,90,0.0,2.0,92,0.00,,---,0.00,VWS V14.01,2013-08-19 13:01:00,
2013-08-19 09:06:00,63.0,60.6,30.18,NE,45,1.0,1.0,92,0.00,,---,0.00,VWS V14.01,2013-08-19 13:06:00,
2013-08-19 09:11:00,63.0,60.6,30.18,NNE,22,0.0,1.0,92,0.00,,---,0.00,VWS V14.01,2013-08-19 13:11:00,
2013-08-19 09:16:00,63.0,60.3,30.18,NE,45,1.0,3.0,91,0.00,,---,0.00,VWS V14.01,2013-08-19 13:16:00,
2013-08-19 09:21:00,63.0,60.3,30.18,NE,45,1.0,2.0,91,0.00,,---,0.00,VWS V14.01,2013-08-19 13:21:00,
2013-08-19 09:26:00,63.0,60.3,30.18,NE,45,1.0,2.0,91,0.00,,---,0.00,VWS V14.01,2013-08-19 13:26:00,
2013-08-19 09:31:00,63.0,60.0,30.18,ENE,68,1.0,2.0,90,0.00,,---,0.00,VWS V14.01,2013-08-19 13:31:00,
2013-08-19 09:36:00,63.0,60.0,30.18,ENE,68,1.0,2.0,90,0.00,,---,0.00,VWS V14.01,2013-08-19 13:36:00,
2013-08-19 09:41:00,64.0,61.0,30.18,ENE,68,0.0,1.0,90,0.00,,---,0.00,VWS V14.01,2013-08-19 13:41:00,
2013-08-19 09:46:00,64.0,61.0,30.18,East,90,1.0,2.0,90,0.00,,---,0.00,VWS V14.01,2013-08-19 13:46:00,
2013-08-19 09:51:00,64.0,61.0,30.18,ESE,112,1.0,2.0,90,0.00,,---,0.00,VWS V14.01,2013-08-19 13:51:00,
2013-08-19 09:57:00,64.0,60.7,30.18,WSW,248,3.0,5.0,89,0.00,,---,0.00,VWS V14.01,2013-08-19 13:57:00,
2013-08-19 10:02:00,65.0,61.4,30.18,WSW,248,2.0,2.0,88,0.00,,---,0.00,VWS V14.01,2013-08-19 14:02:00,
2013-08-19 10:07:00,65.0,61.4,30.18,South,180,1.0,3.0,88,0.00,,---,0.00,VWS V14.01,2013-08-19 14:07:00,
2013-08-19 10:12:00,65.0,61.4,30.18,SW,225,1.0,3.0,88,0.00,,---,0.00,VWS V14.01,2013-08-19 14:12:00,
2013-08-19 10:17:00,66.0,62.0,30.18,NW,315,1.0,3.0,87,0.00,,---,0.00,VWS V14.01,2013-08-19 14:17:00,
2013-08-19 10:22:00,66.0,61.4,30.18,NNW,338,1.0,1.0,85,0.00,,---,0.00,VWS V14.01,2013-08-19 14:22:00,
2013-08-19 10:27:00,67.0,62.0,30.18,SE,135,0.0,2.0,84,0.00,,---,0.00,VWS V14.01,2013-08-19 14:27:00,
2013-08-19 10:32:00,67.0,61.3,30.17,North,0,1.0,4.0,82,0.00,,---,0.00,VWS V14.01,2013-08-19 14:32:00,
2013-08-19 10:37:00,67.0,61.3,30.17,NW,315,2.0,5.0,82,0.00,,---,0.00,VWS V14.01,2013-08-19 14:37:00,
2013-08-19 10:43:00,68.0,62.3,30.17,North,0,1.0,3.0,82,0.00,,---,0.00,VWS V14.01,2013-08-19 14:43:00,
2013-08-19 10:48:00,68.0,62.0,30.17,NNW,338,1.0,3.0,81,0.00,,---,0.00,VWS V14.01,2013-08-19 14:48:00,
2013-08-19 10:53:00,68.0,62.0,30.17,WNW,292,1.0,3.0,81,0.00,,---,0.00,VWS V14.01,2013-08-19 14:53:00,
2013-08-19 10:58:00,70.0,63.5,30.16,East,90,1.0,3.0,80,0.00,,---,0.00,VWS V14.01,2013-08-19 14:58:00,
2013-08-19 11:03:00,70.0,62.1,30.16,SW,225,3.0,3.0,76,0.00,,---,0.00,VWS V14.01,2013-08-19 15:03:00,
2013-08-19 11:08:00,71.0,63.1,30.16,WSW,248,2.0,5.0,76,0.00,,---,0.00,VWS V14.01,2013-08-19 15:08:00,
2013-08-19 11:13:00,71.0,61.9,30.16,NE,45,2.0,5.0,73,0.00,,---,0.00,VWS V14.01,2013-08-19 15:13:00,
2013-08-19 11:18:00,72.0,62.9,30.16,NNW,338,3.0,5.0,73,0.00,,---,0.00,VWS V14.01,2013-08-19 15:18:00,
2013-08-19 11:23:00,73.0,64.2,30.16,NE,45,4.0,6.0,74,0.00,,---,0.00,VWS V14.01,2013-08-19 15:23:00,
2013-08-19 11:28:00,73.0,63.5,30.16,NNW,338,5.0,6.0,72,0.00,,---,0.00,VWS V14.01,2013-08-19 15:28:00,
2013-08-19 11:33:00,72.0,62.9,30.16,North,0,3.0,6.0,73,0.00,,---,0.00,VWS V14.01,2013-08-19 15:33:00,
2013-08-19 11:39:00,72.0,63.7,30.16,NNE,22,3.0,6.0,75,0.00,,---,0.00,VWS V14.01,2013-08-19 15:39:00,
2013-08-19 11:44:00,71.0,62.7,30.16,NNW,338,2.0,6.0,75,0.00,,---,0.00,VWS V14.01,2013-08-19 15:44:00,
2013-08-19 11:49:00,71.0,62.7,30.16,North,0,2.0,6.0,75,0.00,,---,0.00,VWS V14.01,2013-08-19 15:49:00,
2013-08-19 11:54:00,71.0,63.1,30.16,North,0,1.0,6.0,76,0.00,,---,0.00,VWS V14.01,2013-08-19 15:54:00,
2013-08-19 11:59:00,71.0,63.1,30.16,NW,315,1.0,6.0,76,0.00,,---,0.00,VWS V14.01,2013-08-19 15:59:00,
2013-08-19 12:04:00,71.0,63.4,30.16,WNW,292,0.0,3.0,77,0.00,,---,0.00,VWS V14.01,2013-08-19 16:04:00,
2013-08-19 12:09:00,71.0,63.4,30.16,NW,315,1.0,3.0,77,0.00,,---,0.00,VWS V14.01,2013-08-19 16:09:00,
2013-08-19 12:14:00,71.0,63.4,30.16,NW,315,1.0,3.0,77,0.00,,---,0.00,VWS V14.01,2013-08-19 16:14:00,
2013-08-19 12:19:00,71.0,63.8,30.16,NE,45,1.0,3.0,78,0.00,,---,0.00,VWS V14.01,2013-08-19 16:19:00,
2013-08-19 12:24:00,71.0,63.1,30.16,South,180,2.0,3.0,76,0.00,,---,0.00,VWS V14.01,2013-08-19 16:24:00,
2013-08-19 12:30:00,71.0,62.7,30.16,SSE,158,2.0,4.0,75,0.00,,---,0.00,VWS V14.01,2013-08-19 16:30:00,
2013-08-19 12:35:00,72.0,63.7,30.16,West,270,4.0,6.0,75,0.00,,---,0.00,VWS V14.01,2013-08-19 16:35:00,
2013-08-19 12:40:00,72.0,63.3,30.16,West,270,2.0,6.0,74,0.00,,---,0.00,VWS V14.01,2013-08-19 16:40:00,
2013-08-19 12:45:00,73.0,63.5,30.15,WSW,248,5.0,8.0,72,0.00,,---,0.00,VWS V14.01,2013-08-19 16:45:00,
2013-08-19 12:50:00,73.0,62.2,30.15,SSE,158,5.0,8.0,69,0.00,,---,0.00,VWS V14.01,2013-08-19 16:50:00,
2013-08-19 12:55:00,74.0,63.2,30.15,WNW,292,4.0,8.0,69,0.00,,---,0.00,VWS V14.01,2013-08-19 16:55:00,
2013-08-19 13:00:00,74.0,61.9,30.15,WNW,292,5.0,8.0,66,0.00,,---,0.00,VWS V14.01,2013-08-19 17:00:00,
2013-08-19 13:05:00,74.0,61.5,30.15,SE,135,3.0,5.0,65,0.00,,---,0.00,VWS V14.01,2013-08-19 17:05:00,
2013-08-19 13:10:00,75.0,63.7,30.14,West,270,1.0,5.0,68,0.00,,---,0.00,VWS V14.01,2013-08-19 17:10:00,
2013-08-19 13:15:00,75.0,62.9,30.14,East,90,2.0,5.0,66,0.00,,---,0.00,VWS V14.01,2013-08-19 17:15:00,
2013-08-19 13:20:00,76.0,63.4,30.14,South,180,1.0,6.0,65,0.00,,---,0.00,VWS V14.01,2013-08-19 17:20:00,
2013-08-19 13:26:00,76.0,62.0,30.14,NNW,338,2.0,6.0,62,0.00,,---,0.00,VWS V14.01,2013-08-19 17:26:00,
2013-08-19 13:31:00,75.0,61.6,30.14,South,180,4.0,6.0,63,0.00,,---,0.00,VWS V14.01,2013-08-19 17:31:00,
2013-08-19 13:36:00,74.0,61.5,30.14,WSW,248,2.0,6.0,65,0.00,,---,0.00,VWS V14.01,2013-08-19 17:36:00,
2013-08-19 13:41:00,74.0,61.9,30.14,SSW,202,5.0,5.0,66,0.00,,---,0.00,VWS V14.01,2013-08-19 17:41:00,
2013-08-19 13:46:00,74.0,61.5,30.14,SW,225,1.0,6.0,65,0.00,,---,0.00,VWS V14.01,2013-08-19 17:46:00,
2013-08-19 13:52:00,74.0,61.9,30.14,ESE,112,2.0,6.0,66,0.00,,---,0.00,VWS V14.01,2013-08-19 17:52:00,
2013-08-19 13:57:00,75.0,63.3,30.14,ENE,68,3.0,6.0,67,0.00,,---,0.00,VWS V14.01,2013-08-19 17:57:00,
2013-08-19 14:02:00,74.0,61.1,30.14,SW,225,1.0,2.0,64,0.00,,---,0.00,VWS V14.01,2013-08-19 18:02:00,
2013-08-19 14:07:00,74.0,61.5,30.14,WSW,248,8.0,9.0,65,0.00,,---,0.00,VWS V14.01,2013-08-19 18:07:00,
2013-08-19 14:12:00,74.0,62.4,30.14,WSW,248,2.0,9.0,67,0.00,,---,0.00,VWS V14.01,2013-08-19 18:12:00,
2013-08-19 14:17:00,73.0,62.2,30.14,WNW,292,10.0,13.0,69,0.00,,---,0.00,VWS V14.01,2013-08-19 18:17:00,
2013-08-19 14:22:00,72.0,62.9,30.14,WNW,292,10.0,10.0,73,0.00,,---,0.00,VWS V14.01,2013-08-19 18:22:00,
2013-08-19 14:27:00,72.0,63.3,30.15,WNW,292,6.0,11.0,74,0.00,,---,0.00,VWS V14.01,2013-08-19 18:27:00,
2013-08-19 14:32:00,71.0,62.7,30.15,NNW,338,3.0,13.0,75,0.00,,---,0.00,VWS V14.01,2013-08-19 18:32:00,
2013-08-19 14:37:00,71.0,63.1,30.15,WNW,292,5.0,13.0,76,0.00,,---,0.00,VWS V14.01,2013-08-19 18:37:00,
2013-08-19 14:42:00,71.0,63.4,30.15,NNW,338,3.0,6.0,77,0.00,,---,0.00,VWS V14.01,2013-08-19 18:42:00,
2013-08-19 14:47:00,71.0,63.8,30.15,NW,315,3.0,7.0,78,0.00,,---,0.00,VWS V14.01,2013-08-19 18:47:00,
2013-08-19 14:53:00,71.0,63.8,30.14,WNW,292,3.0,7.0,78,0.00,,---,0.00,VWS V14.01,2013-08-19 18:53:00,
2013-08-19 14:58:00,71.0,63.8,30.15,NNW,338,1.0,8.0,78,0.00,,---,0.00,VWS V14.01,2013-08-19 18:58:00,
2013-08-19 15:03:00,71.0,64.2,30.14,WNW,292,1.0,5.0,79,0.00,,---,0.00,VWS V14.01,2013-08-19 19:03:00,
2013-08-19 15:08:00,71.0,63.8,30.14,NW,315,2.0,5.0,78,0.00,,---,0.00,VWS V14.01,2013-08-19 19:08:00,
2013-08-19 15:13:00,72.0,64.4,30.14,WNW,292,3.0,9.0,77,0.00,,---,0.00,VWS V14.01,2013-08-19 19:13:00,
2013-08-19 15:18:00,72.0,64.4,30.14,NNW,338,3.0,9.0,77,0.00,,---,0.00,VWS V14.01,2013-08-19 19:18:00,
2013-08-19 15:23:00,73.0,64.6,30.14,NNW,338,6.0,6.0,75,0.00,,---,0.00,VWS V14.01,2013-08-19 19:23:00,
2013-08-19 15:28:00,73.0,64.2,30.14,NNW,338,1.0,6.0,74,0.00,,---,0.00,VWS V14.01,2013-08-19 19:28:00,
2013-08-19 15:33:00,73.0,63.8,30.14,NW,315,4.0,6.0,73,0.00,,---,0.00,VWS V14.01,2013-08-19 19:33:00,
2013-08-19 15:38:00,73.0,62.7,30.13,NNW,338,5.0,6.0,70,0.00,,---,0.00,VWS V14.01,2013-08-19 19:38:00,
2013-08-19 15:44:00,74.0,64.4,30.14,North,0,2.0,6.0,72,0.00,,---,0.00,VWS V14.01,2013-08-19 19:44:00,
2013-08-19 15:49:00,75.0,65.4,30.13,NE,45,3.0,6.0,72,0.00,,---,0.00,VWS V14.01,2013-08-19 19:49:00,
2013-08-19 15:54:00,75.0,63.3,30.13,NW,315,0.0,6.0,67,0.00,,---,0.00,VWS V14.01,2013-08-19 19:54:00,
2013-08-19 15:59:00,75.0,63.3,30.14,NW,315,3.0,6.0,67,0.00,,---,0.00,VWS V14.01,2013-08-19 19:59:00,
2013-08-19 16:04:00,75.0,63.7,30.13,WNW,292,1.0,5.0,68,0.00,,---,0.00,VWS V14.01,2013-08-19 20:04:00,
2013-08-19 16:09:00,75.0,63.7,30.13,NNW,338,1.0,5.0,68,0.00,,---,0.00,VWS V14.01,2013-08-19 20:09:00,
2013-08-19 16:14:00,75.0,63.7,30.13,NNW,338,2.0,5.0,68,0.00,,---,0.00,VWS V14.01,2013-08-19 20:14:00,
2013-08-19 16:19:00,75.0,64.6,30.13,WNW,292,3.0,6.0,70,0.00,,---,0.00,VWS V14.01,2013-08-19 20:19:00,
2013-08-19 16:24:00,75.0,64.2,30.13,NNW,338,2.0,8.0,69,0.00,,---,0.00,VWS V14.01,2013-08-19 20:24:00,
2013-08-19 16:30:00,75.0,65.0,30.13,NW,315,2.0,8.0,71,0.00,,---,0.00,VWS V14.01,2013-08-19 20:30:00,
2013-08-19 16:35:00,76.0,65.9,30.13,WNW,292,2.0,8.0,71,0.00,,---,0.00,VWS V14.01,2013-08-19 20:35:00,
2013-08-19 16:40:00,75.0,64.6,30.13,NNW,338,1.0,9.0,70,0.00,,---,0.00,VWS V14.01,2013-08-19 20:40:00,
2013-08-19 16:45:00,75.0,65.0,30.13,North,0,4.0,10.0,71,0.00,,---,0.00,VWS V14.01,2013-08-19 20:45:00,
2013-08-19 16:50:00,74.0,64.4,30.13,West,270,3.0,12.0,72,0.00,,---,0.00,VWS V14.01,2013-08-19 20:50:00,
2013-08-19 16:55:00,73.0,63.8,30.13,WNW,292,5.0,12.0,73,0.00,,---,0.00,VWS V14.01,2013-08-19 20:55:00,
2013-08-19 17:00:00,73.0,64.2,30.13,NW,315,4.0,12.0,74,0.00,,---,0.00,VWS V14.01,2013-08-19 21:00:00,
2013-08-19 17:06:00,73.0,64.2,30.13,WNW,292,4.0,9.0,74,0.00,,---,0.00,VWS V14.01,2013-08-19 21:06:00,
2013-08-19 17:11:00,73.0,64.6,30.13,West,270,4.0,9.0,75,0.00,,---,0.00,VWS V14.01,2013-08-19 21:11:00,
2013-08-19 17:16:00,73.0,63.8,30.13,NW,315,4.0,10.0,73,0.00,,---,0.00,VWS V14.01,2013-08-19 21:16:00,
2013-08-19 17:21:00,73.0,63.8,30.13,NW,315,5.0,10.0,73,0.00,,---,0.00,VWS V14.01,2013-08-19 21:21:00,
2013-08-19 17:26:00,73.0,63.8,30.13,NW,315,8.0,9.0,73,0.00,,---,0.00,VWS V14.01,2013-08-19 21:26:00,
2013-08-19 17:31:00,73.0,63.8,30.13,West,270,2.0,9.0,73,0.00,,---,0.00,VWS V14.01,2013-08-19 21:31:00,
2013-08-19 17:36:00,72.0,62.9,30.13,NNW,338,5.0,9.0,73,0.00,,---,0.00,VWS V14.01,2013-08-19 21:36:00,
2013-08-19 17:41:00,72.0,63.3,30.13,North,0,1.0,4.0,74,0.00,,---,0.00,VWS V14.01,2013-08-19 21:41:00,
2013-08-19 17:46:00,72.0,62.9,30.13,NNW,338,1.0,5.0,73,0.00,,---,0.00,VWS V14.01,2013-08-19 21:46:00,
2013-08-19 17:51:00,72.0,62.9,30.13,NW,315,1.0,5.0,73,0.00,,---,0.00,VWS V14.01,2013-08-19 21:51:00,
2013-08-19 17:57:00,72.0,62.9,30.13,NNW,338,2.0,6.0,73,0.00,,---,0.00,VWS V14.01,2013-08-19 21:57:00,
2013-08-19 18:02:00,72.0,62.5,30.13,NW,315,3.0,8.0,72,0.00,,---,0.00,VWS V14.01,2013-08-19 22:02:00,
2013-08-19 18:07:00,72.0,62.9,30.13,NNW,338,3.0,8.0,73,0.00,,---,0.00,VWS V14.01,2013-08-19 22:07:00,
2013-08-19 18:12:00,72.0,63.3,30.13,WNW,292,3.0,8.0,74,0.00,,---,0.00,VWS V14.01,2013-08-19 22:12:00,
2013-08-19 18:17:00,72.0,63.3,30.13,West,270,3.0,8.0,74,0.00,,---,0.00,VWS V14.01,2013-08-19 22:17:00,
2013-08-19 18:22:00,72.0,63.3,30.13,NNW,338,3.0,5.0,74,0.00,,---,0.00,VWS V14.01,2013-08-19 22:22:00,
2013-08-19 18:27:00,72.0,63.3,30.13,NNW,338,1.0,6.0,74,0.00,,---,0.00,VWS V14.01,2013-08-19 22:27:00,
2013-08-19 18:33:00,72.0,63.3,30.13,NNW,338,2.0,6.0,74,0.00,,---,0.00,VWS V14.01,2013-08-19 22:33:00,
2013-08-19 18:38:00,72.0,63.7,30.13,West,270,3.0,8.0,75,0.00,,---,0.00,VWS V14.01,2013-08-19 22:38:00,
2013-08-19 18:43:00,72.0,63.3,30.13,NNW,338,3.0,6.0,74,0.00,,---,0.00,VWS V14.01,2013-08-19 22:43:00,
2013-08-19 18:48:00,72.0,63.3,30.13,WNW,292,4.0,6.0,74,0.00,,---,0.00,VWS V14.01,2013-08-19 22:48:00,
2013-08-19 18:53:00,72.0,62.9,30.13,NNW,338,2.0,6.0,73,0.00,,---,0.00,VWS V14.01,2013-08-19 22:53:00,
2013-08-19 18:58:00,72.0,62.9,30.13,WNW,292,5.0,6.0,73,0.00,,---,0.00,VWS V14.01,2013-08-19 22:58:00,
2013-08-19 19:03:00,72.0,62.5,30.13,WNW,292,3.0,6.0,72,0.00,,---,0.00,VWS V14.01,2013-08-19 23:03:00,
2013-08-19 19:08:00,72.0,62.5,30.13,NNW,338,4.0,6.0,72,0.00,,---,0.00,VWS V14.01,2013-08-19 23:08:00,
2013-08-19 19:13:00,72.0,62.1,30.13,NW,315,1.0,6.0,71,0.00,,---,0.00,VWS V14.01,2013-08-19 23:13:00,
2013-08-19 19:18:00,72.0,62.1,30.13,West,270,2.0,6.0,71,0.00,,---,0.00,VWS V14.01,2013-08-19 23:18:00,
2013-08-19 19:23:00,72.0,62.1,30.13,WSW,248,3.0,5.0,71,0.00,,---,0.00,VWS V14.01,2013-08-19 23:23:00,
2013-08-19 19:29:00,72.0,62.1,30.13,WNW,292,1.0,5.0,71,0.00,,---,0.00,VWS V14.01,2013-08-19 23:29:00,
2013-08-19 19:34:00,72.0,62.1,30.13,WNW,292,2.0,6.0,71,0.00,,---,0.00,VWS V14.01,2013-08-19 23:34:00,
2013-08-19 19:39:00,72.0,62.1,30.13,WNW,292,1.0,6.0,71,0.00,,---,0.00,VWS V14.01,2013-08-19 23:39:00,
2013-08-19 19:44:00,71.0,61.5,30.13,WNW,292,1.0,5.0,72,0.00,,---,0.00,VWS V14.01,2013-08-19 23:44:00,
2013-08-19 19:49:00,71.0,61.5,30.13,WNW,292,1.0,5.0,72,0.00,,---,0.00,VWS V14.01,2013-08-19 23:49:00,
2013-08-19 19:54:00,71.0,61.9,30.13,NNW,338,1.0,5.0,73,0.00,,---,0.00,VWS V14.01,2013-08-19 23:54:00,
2013-08-19 19:59:00,70.0,61.0,30.13,NNW,338,0.0,5.0,73,0.00,,---,0.00,VWS V14.01,2013-08-19 23:59:00,
2013-08-19 20:04:00,70.0,61.3,30.13,NNW,338,0.0,1.0,74,0.00,,---,0.00,VWS V14.01,2013-08-20 00:04:00,
2013-08-19 20:09:00,70.0,62.1,30.13,West,270,1.0,1.0,76,0.00,,---,0.00,VWS V14.01,2013-08-20 00:09:00,
2013-08-19 20:15:00,69.0,61.1,30.13,SW,225,1.0,3.0,76,0.00,,---,0.00,VWS V14.01,2013-08-20 00:15:00,
2013-08-19 20:20:00,69.0,61.5,30.13,SW,225,1.0,3.0,77,0.00,,---,0.00,VWS V14.01,2013-08-20 00:20:00,
2013-08-19 20:25:00,68.0,60.9,30.13,SW,225,1.0,2.0,78,0.00,,---,0.00,VWS V14.01,2013-08-20 00:25:00,
2013-08-19 20:30:00,68.0,61.2,30.13,SW,225,1.0,3.0,79,0.00,,---,0.00,VWS V14.01,2013-08-20 00:30:00,
2013-08-19 20:35:00,68.0,61.6,30.13,SW,225,0.0,3.0,80,0.00,,---,0.00,VWS V14.01,2013-08-20 00:35:00,
2013-08-19 20:40:00,68.0,61.6,30.13,SW,225,1.0,3.0,80,0.00,,---,0.00,VWS V14.01,2013-08-20 00:40:00,
2013-08-19 20:45:00,67.0,60.6,30.13,SW,225,0.0,1.0,80,0.00,,---,0.00,VWS V14.01,2013-08-20 00:45:00,
2013-08-19 20:50:00,67.0,61.0,30.14,WSW,248,0.0,2.0,81,0.00,,---,0.00,VWS V14.01,2013-08-20 00:50:00,
2013-08-19 20:55:00,67.0,61.0,30.14,WSW,248,0.0,2.0,81,0.00,,---,0.00,VWS V14.01,2013-08-20 00:55:00,
2013-08-19 21:00:00,66.0,60.3,30.14,North,0,1.0,2.0,82,0.00,,---,0.00,VWS V14.01,2013-08-20 01:00:00,
2013-08-19 21:05:00,66.0,61.0,30.14,North,0,0.0,1.0,84,0.00,,---,0.00,VWS V14.01,2013-08-20 01:05:00,
2013-08-19 21:10:00,65.0,60.0,30.14,WSW,248,0.0,1.0,84,0.00,,---,0.00,VWS V14.01,2013-08-20 01:10:00,
2013-08-19 21:15:00,65.0,60.4,30.14,WSW,248,1.0,1.0,85,0.00,,---,0.00,VWS V14.01,2013-08-20 01:15:00,
2013-08-19 21:20:00,65.0,60.4,30.14,West,270,1.0,2.0,85,0.00,,---,0.00,VWS V14.01,2013-08-20 01:20:00,
2013-08-19 21:25:00,65.0,60.7,30.14,West,270,0.0,1.0,86,0.00,,---,0.00,VWS V14.01,2013-08-20 01:25:00,
2013-08-19 21:31:00,64.0,59.7,30.15,West,270,1.0,1.0,86,0.00,,---,0.00,VWS V14.01,2013-08-20 01:31:00,
2013-08-19 21:36:00,64.0,59.7,30.15,West,270,1.0,1.0,86,0.00,,---,0.00,VWS V14.01,2013-08-20 01:36:00,
2013-08-19 21:41:00,64.0,59.7,30.15,West,270,1.0,1.0,86,0.00,,---,0.00,VWS V14.01,2013-08-20 01:41:00,
2013-08-19 21:46:00,63.0,58.8,30.15,West,270,0.0,1.0,86,0.00,,---,0.00,VWS V14.01,2013-08-20 01:46:00,
2013-08-19 21:51:00,63.0,59.1,30.15,West,270,0.0,1.0,87,0.00,,---,0.00,VWS V14.01,2013-08-20 01:51:00,
2013-08-19 21:56:00,63.0,59.1,30.15,West,270,0.0,1.0,87,0.00,,---,0.00,VWS V14.01,2013-08-20 01:56:00,
2013-08-19 22:01:00,63.0,59.1,30.15,West,270,0.0,0.0,87,0.00,,---,0.00,VWS V14.01,2013-08-20 02:01:00,
2013-08-19 22:06:00,62.0,58.4,30.15,SE,135,2.0,2.0,88,0.00,,---,0.00,VWS V14.01,2013-08-20 02:06:00,
2013-08-19 22:11:00,62.0,58.4,30.15,SE,135,1.0,2.0,88,0.00,,---,0.00,VWS V14.01,2013-08-20 02:11:00,
2013-08-19 22:16:00,62.0,58.7,30.15,SE,135,0.0,2.0,89,0.00,,---,0.00,VWS V14.01,2013-08-20 02:16:00,
2013-08-19 22:21:00,62.0,58.7,30.15,West,270,1.0,1.0,89,0.00,,---,0.00,VWS V14.01,2013-08-20 02:21:00,
2013-08-19 22:26:00,61.0,57.7,30.15,West,270,1.0,2.0,89,0.00,,---,0.00,VWS V14.01,2013-08-20 02:26:00,
2013-08-19 22:32:00,61.0,58.0,30.15,WSW,248,1.0,2.0,90,0.00,,---,0.00,VWS V14.01,2013-08-20 02:32:00,
2013-08-19 22:37:00,61.0,58.0,30.15,South,180,0.0,2.0,90,0.00,,---,0.00,VWS V14.01,2013-08-20 02:37:00,
2013-08-19 22:42:00,61.0,58.0,30.15,South,180,0.0,0.0,90,0.00,,---,0.00,VWS V14.01,2013-08-20 02:42:00,
2013-08-19 22:47:00,61.0,58.0,30.15,South,180,0.0,0.0,90,0.00,,---,0.00,VWS V14.01,2013-08-20 02:47:00,
2013-08-19 22:52:00,61.0,58.4,30.16,South,180,0.0,1.0,91,0.00,,---,0.00,VWS V14.01,2013-08-20 02:52:00,
2013-08-19 22:57:00,60.0,57.4,30.16,SSW,202,1.0,1.0,91,0.00,,---,0.00,VWS V14.01,2013-08-20 02:57:00,
2013-08-19 23:02:00,60.0,57.4,30.16,SSW,202,0.0,1.0,91,0.00,,---,0.00,VWS V14.01,2013-08-20 03:02:00,
2013-08-19 23:07:00,60.0,57.4,30.16,SSW,202,0.0,1.0,91,0.00,,---,0.00,VWS V14.01,2013-08-20 03:07:00,
2013-08-19 23:12:00,60.0,57.7,30.16,SSW,202,0.0,1.0,92,0.00,,---,0.00,VWS V14.01,2013-08-20 03:12:00,
2013-08-19 23:17:00,59.0,56.7,30.15,SSW,202,0.0,1.0,92,0.00,,---,0.00,VWS V14.01,2013-08-20 03:17:00,
2013-08-19 23:22:00,59.0,56.7,30.16,SSW,202,1.0,1.0,92,0.00,,---,0.00,VWS V14.01,2013-08-20 03:22:00,
2013-08-19 23:27:00,59.0,56.7,30.15,SW,225,0.0,1.0,92,0.00,,---,0.00,VWS V14.01,2013-08-20 03:27:00,
2013-08-19 23:32:00,59.0,56.7,30.15,SW,225,1.0,1.0,92,0.00,,---,0.00,VWS V14.01,2013-08-20 03:32:00,
2013-08-19 23:38:00,59.0,57.0,30.15,SSW,202,0.0,1.0,93,0.00,,---,0.00,VWS V14.01,2013-08-20 03:38:00,
2013-08-19 23:43:00,59.0,57.0,30.15,SSW,202,0.0,0.0,93,0.00,,---,0.00,VWS V14.01,2013-08-20 03:43:00,
2013-08-19 23:48:00,58.0,56.0,30.15,SSW,202,0.0,0.0,93,0.00,,---,0.00,VWS V14.01,2013-08-20 03:48:00,
2013-08-19 23:53:00,58.0,56.0,30.16,SSW,202,0.0,1.0,93,0.00,,---,0.00,VWS V14.01,2013-08-20 03:53:00,
2013-08-19 23:58:00,58.0,56.0,30.16,SSW,202,0.0,1.0,93,0.00,,---,0.00,VWS V14.01,2013-08-20 03:58:00,